Time,TemperatureF,DewpointF,PressureIn,WindDirection,WindDirectionDegrees,WindSpeedMPH,WindSpeedGustMPH,Humidity,HourlyPrecipIn,Conditions,Clouds,dailyrainin,SoftwareType,DateUTC
2013-02-19 00:02:00,42.2,33.8,30.07,NNW,340,1.0,11.0,72,0.01,,---,0.23,VWS V13.01,2013-02-19 06:02:00,
2013-02-19 00:07:00,42.2,33.8,30.07,North,355,2.0,13.0,72,0.00,,---,0.00,VWS V13.01,2013-02-19 06:07:00,
2013-02-19 00:12:00,42.1,33.7,30.07,West,267,4.0,16.0,72,0.00,,---,0.00,VWS V13.01,2013-02-19 06:12:00,
2013-02-19 00:18:00,42.1,34.1,30.07,NNW,332,1.0,16.0,73,0.00,,---,0.00,VWS V13.01,2013-02-19 06:18:00,
2013-02-19 00:23:00,42.0,34.0,30.07,NNW,342,3.0,16.0,73,0.00,,---,0.00,VWS V13.01,2013-02-19 06:23:00,
2013-02-19 00:28:00,41.9,33.9,30.08,WNW,300,2.0,16.0,73,0.00,,---,0.00,VWS V13.01,2013-02-19 06:28:00,
2013-02-19 00:33:00,41.8,33.1,30.08,North,360,7.0,16.0,71,0.00,,---,0.00,VWS V13.01,2013-02-19 06:33:00,
2013-02-19 00:38:00,41.6,32.9,30.08,NNW,331,4.0,15.0,71,0.00,,---,0.00,VWS V13.01,2013-02-19 06:38:00,
2013-02-19 00:43:00,41.5,32.5,30.08,NNW,348,4.0,15.0,70,0.00,,---,0.00,VWS V13.01,2013-02-19 06:43:00,
2013-02-19 00:48:00,41.3,32.3,30.09,North,350,6.0,15.0,70,0.00,,---,0.00,VWS V13.01,2013-02-19 06:48:00,
2013-02-19 00:53:00,41.2,32.2,30.09,NNW,339,2.0,15.0,70,0.00,,---,0.00,VWS V13.01,2013-02-19 06:53:00,
2013-02-19 00:58:00,41.0,32.3,30.09,NNW,345,3.0,15.0,71,0.00,,---,0.00,VWS V13.01,2013-02-19 06:58:00,
2013-02-19 01:03:00,40.7,32.0,30.10,NNW,345,0.0,15.0,71,0.00,,---,0.00,VWS V13.01,2013-02-19 07:03:00,
2013-02-19 01:08:00,40.5,31.9,30.09,North,351,2.0,6.0,71,0.00,,---,0.00,VWS V13.01,2013-02-19 07:08:00,
2013-02-19 01:13:00,40.3,31.7,30.10,NNW,344,4.0,7.0,71,0.00,,---,0.00,VWS V13.01,2013-02-19 07:13:00,
2013-02-19 01:18:00,40.1,31.5,30.11,NNW,339,0.0,7.0,71,0.00,,---,0.00,VWS V13.01,2013-02-19 07:18:00,
2013-02-19 01:23:00,39.9,30.9,30.11,NW,310,1.0,9.0,70,0.00,,---,0.00,VWS V13.01,2013-02-19 07:23:00,
2013-02-19 01:29:00,39.6,29.6,30.11,North,350,3.0,10.0,67,0.00,,---,0.00,VWS V13.01,2013-02-19 07:29:00,
2013-02-19 01:34:00,39.3,28.5,30.12,NNW,339,6.0,14.0,65,0.00,,---,0.00,VWS V13.01,2013-02-19 07:34:00,
2013-02-19 01:39:00,39.0,27.9,30.12,North,360,4.0,13.0,64,0.00,,---,0.00,VWS V13.01,2013-02-19 07:39:00,
2013-02-19 01:44:00,38.8,27.3,30.13,NNW,345,2.0,13.0,63,0.00,,---,0.00,VWS V13.01,2013-02-19 07:44:00,
2013-02-19 01:49:00,38.6,27.1,30.13,NNW,330,0.0,13.0,63,0.00,,---,0.00,VWS V13.01,2013-02-19 07:49:00,
2013-02-19 01:54:00,38.4,26.9,30.13,NNW,348,1.0,13.0,63,0.00,,---,0.00,VWS V13.01,2013-02-19 07:54:00,
2013-02-19 01:59:00,38.2,26.7,30.13,NNW,334,0.0,13.0,63,0.00,,---,0.00,VWS V13.01,2013-02-19 07:59:00,
2013-02-19 02:04:00,38.0,26.5,30.14,NNW,344,2.0,13.0,63,0.00,,---,0.00,VWS V13.01,2013-02-19 08:04:00,
2013-02-19 02:09:00,37.9,26.5,30.13,NNW,346,2.0,5.0,63,0.00,,---,0.00,VWS V13.01,2013-02-19 08:09:00,
2013-02-19 02:14:00,37.7,26.6,30.13,NNW,342,0.0,9.0,64,0.00,,---,0.00,VWS V13.01,2013-02-19 08:14:00,
2013-02-19 02:19:00,37.5,26.5,30.13,NNW,331,0.0,9.0,64,0.00,,---,0.00,VWS V13.01,2013-02-19 08:19:00,
2013-02-19 02:24:00,37.4,26.4,30.13,NNW,348,4.0,11.0,64,0.00,,---,0.00,VWS V13.01,2013-02-19 08:24:00,
2013-02-19 02:29:00,37.2,26.2,30.14,North,355,5.0,11.0,64,0.00,,---,0.00,VWS V13.01,2013-02-19 08:29:00,
2013-02-19 02:34:00,37.1,26.1,30.14,North,350,4.0,11.0,64,0.00,,---,0.00,VWS V13.01,2013-02-19 08:34:00,
2013-02-19 02:39:00,36.9,25.9,30.14,NW,307,3.0,9.0,64,0.00,,---,0.00,VWS V13.01,2013-02-19 08:39:00,
2013-02-19 02:44:00,36.8,25.8,30.14,North,360,2.0,11.0,64,0.00,,---,0.00,VWS V13.01,2013-02-19 08:44:00,
2013-02-19 02:49:00,36.8,25.4,30.14,North,360,5.0,11.0,63,0.00,,---,0.00,VWS V13.01,2013-02-19 08:49:00,
2013-02-19 02:54:00,36.8,25.4,30.15,NNW,348,3.0,12.0,63,0.00,,---,0.00,VWS V13.01,2013-02-19 08:54:00,
2013-02-19 02:59:00,36.7,25.3,30.15,NNW,344,6.0,12.0,63,0.00,,---,0.00,VWS V13.01,2013-02-19 08:59:00,
2013-02-19 03:04:00,36.6,25.2,30.15,NNW,341,3.0,12.0,63,0.00,,---,0.00,VWS V13.01,2013-02-19 09:04:00,
2013-02-19 03:09:00,36.5,25.5,30.15,NNW,348,7.0,10.0,64,0.00,,---,0.00,VWS V13.01,2013-02-19 09:09:00,
2013-02-19 03:14:00,36.4,25.4,30.16,NNW,346,6.0,10.0,64,0.00,,---,0.00,VWS V13.01,2013-02-19 09:14:00,
2013-02-19 03:19:00,36.3,25.3,30.16,NNW,344,5.0,11.0,64,0.00,,---,0.00,VWS V13.01,2013-02-19 09:19:00,
2013-02-19 03:24:00,36.2,25.2,30.16,NNW,337,4.0,11.0,64,0.00,,---,0.00,VWS V13.01,2013-02-19 09:24:00,
2013-02-19 03:30:00,36.1,25.1,30.16,North,355,1.0,11.0,64,0.00,,---,0.00,VWS V13.01,2013-02-19 09:30:00,
2013-02-19 03:35:00,36.1,25.1,30.16,NNW,346,0.0,11.0,64,0.00,,---,0.00,VWS V13.01,2013-02-19 09:35:00,
2013-02-19 03:40:00,36.0,25.0,30.17,NNW,343,0.0,5.0,64,0.00,,---,0.00,VWS V13.01,2013-02-19 09:40:00,
2013-02-19 03:45:00,35.9,24.9,30.16,North,355,2.0,6.0,64,0.00,,---,0.00,VWS V13.01,2013-02-19 09:45:00,
2013-02-19 03:50:00,35.9,24.5,30.16,NW,305,1.0,9.0,63,0.00,,---,0.00,VWS V13.01,2013-02-19 09:50:00,
2013-02-19 03:55:00,35.9,24.2,30.16,NNW,342,3.0,10.0,62,0.00,,---,0.00,VWS V13.01,2013-02-19 09:55:00,
2013-02-19 04:00:00,35.9,23.4,30.16,North,360,7.0,11.0,60,0.00,,---,0.00,VWS V13.01,2013-02-19 10:00:00,
2013-02-19 04:05:00,36.0,23.1,30.16,NNW,330,7.0,13.0,59,0.00,,---,0.00,VWS V13.01,2013-02-19 10:05:00,
2013-02-19 04:10:00,36.1,22.8,30.17,NNW,346,4.0,10.0,58,0.00,,---,0.00,VWS V13.01,2013-02-19 10:10:00,
2013-02-19 04:15:00,36.1,22.8,30.17,North,360,6.0,12.0,58,0.00,,---,0.00,VWS V13.01,2013-02-19 10:15:00,
2013-02-19 04:20:00,36.1,22.8,30.17,NNW,345,3.0,12.0,58,0.00,,---,0.00,VWS V13.01,2013-02-19 10:20:00,
2013-02-19 04:25:00,36.0,22.7,30.18,NNW,337,0.0,12.0,58,0.00,,---,0.00,VWS V13.01,2013-02-19 10:25:00,
2013-02-19 04:31:00,35.9,23.0,30.18,North,349,0.0,12.0,59,0.00,,---,0.00,VWS V13.01,2013-02-19 10:31:00,
2013-02-19 04:36:00,35.7,22.4,30.18,North,360,3.0,3.0,58,0.00,,---,0.00,VWS V13.01,2013-02-19 10:36:00,
2013-02-19 04:41:00,35.6,22.3,30.18,NNW,346,0.0,6.0,58,0.00,,---,0.00,VWS V13.01,2013-02-19 10:41:00,
2013-02-19 04:46:00,35.6,22.3,30.18,NNW,346,0.0,6.0,58,0.00,,---,0.00,VWS V13.01,2013-02-19 10:46:00,
2013-02-19 04:51:00,35.5,22.6,30.18,NW,310,0.0,6.0,59,0.00,,---,0.00,VWS V13.01,2013-02-19 10:51:00,
2013-02-19 04:56:00,35.3,22.4,30.19,NW,324,0.0,6.0,59,0.00,,---,0.00,VWS V13.01,2013-02-19 10:56:00,
2013-02-19 05:01:00,35.2,22.3,30.19,NW,317,0.0,6.0,59,0.00,,---,0.00,VWS V13.01,2013-02-19 11:01:00,
2013-02-19 05:06:00,35.1,22.2,30.19,NW,321,0.0,1.0,59,0.00,,---,0.00,VWS V13.01,2013-02-19 11:06:00,
2013-02-19 05:11:00,35.0,22.1,30.19,NNW,342,0.0,3.0,59,0.00,,---,0.00,VWS V13.01,2013-02-19 11:11:00,
2013-02-19 05:16:00,34.8,22.0,30.20,NW,322,0.0,4.0,59,0.00,,---,0.00,VWS V13.01,2013-02-19 11:16:00,
2013-02-19 05:21:00,34.7,21.9,30.20,NW,322,1.0,4.0,59,0.00,,---,0.00,VWS V13.01,2013-02-19 11:21:00,
2013-02-19 05:26:00,34.6,21.8,30.20,NNW,346,2.0,4.0,59,0.00,,---,0.00,VWS V13.01,2013-02-19 11:26:00,
2013-02-19 05:31:00,34.4,21.2,30.20,NNW,346,0.0,4.0,58,0.00,,---,0.00,VWS V13.01,2013-02-19 11:31:00,
2013-02-19 05:36:00,34.4,21.6,30.20,NNW,346,0.0,0.0,59,0.00,,---,0.00,VWS V13.01,2013-02-19 11:36:00,
2013-02-19 05:41:00,34.4,21.6,30.20,NW,318,0.0,5.0,59,0.00,,---,0.00,VWS V13.01,2013-02-19 11:41:00,
2013-02-19 05:47:00,34.3,21.5,30.21,NW,317,0.0,5.0,59,0.00,,---,0.00,VWS V13.01,2013-02-19 11:47:00,
2013-02-19 05:52:00,34.2,21.4,30.21,NW,317,0.0,5.0,59,0.00,,---,0.00,VWS V13.01,2013-02-19 11:52:00,
2013-02-19 05:57:00,34.1,21.3,30.22,NW,317,0.0,5.0,59,0.00,,---,0.00,VWS V13.01,2013-02-19 11:57:00,
2013-02-19 06:02:00,33.9,21.1,30.22,NW,319,0.0,5.0,59,0.00,,---,0.00,VWS V13.01,2013-02-19 12:02:00,
2013-02-19 06:07:00,33.8,21.4,30.22,NW,319,0.0,0.0,60,0.00,,---,0.00,VWS V13.01,2013-02-19 12:07:00,
2013-02-19 06:12:00,33.7,21.3,30.22,NW,318,0.0,2.0,60,0.00,,---,0.00,VWS V13.01,2013-02-19 12:12:00,
2013-02-19 06:17:00,33.5,21.5,30.22,NW,319,1.0,3.0,61,0.00,,---,0.00,VWS V13.01,2013-02-19 12:17:00,
2013-02-19 06:22:00,33.4,21.8,30.23,NW,319,1.0,3.0,62,0.00,,---,0.00,VWS V13.01,2013-02-19 12:22:00,
2013-02-19 06:27:00,33.2,21.6,30.23,NW,319,0.0,3.0,62,0.00,,---,0.00,VWS V13.01,2013-02-19 12:27:00,
2013-02-19 06:32:00,33.0,21.8,30.23,NW,325,0.0,3.0,63,0.00,,---,0.00,VWS V13.01,2013-02-19 12:32:00,
2013-02-19 06:37:00,32.8,21.2,30.23,NW,325,0.0,2.0,62,0.00,,---,0.00,VWS V13.01,2013-02-19 12:37:00,
2013-02-19 06:42:00,32.7,21.1,30.23,NW,325,0.0,3.0,62,0.00,,---,0.00,VWS V13.01,2013-02-19 12:42:00,
2013-02-19 06:47:00,32.7,21.1,30.23,NW,325,0.0,3.0,62,0.00,,---,0.00,VWS V13.01,2013-02-19 12:47:00,
2013-02-19 06:52:00,32.6,21.4,30.23,NW,325,0.0,3.0,63,0.00,,---,0.00,VWS V13.01,2013-02-19 12:52:00,
2013-02-19 06:57:00,32.5,21.3,30.24,NW,325,0.0,3.0,63,0.00,,---,0.00,VWS V13.01,2013-02-19 12:57:00,
2013-02-19 07:02:00,32.5,21.3,30.24,NW,325,0.0,3.0,63,0.00,,---,0.00,VWS V13.01,2013-02-19 13:02:00,
2013-02-19 07:07:00,32.4,21.2,30.24,NW,325,0.0,0.0,63,0.00,,---,0.00,VWS V13.01,2013-02-19 13:07:00,
2013-02-19 07:12:00,32.3,21.1,30.25,NW,325,0.0,0.0,63,0.00,,---,0.00,VWS V13.01,2013-02-19 13:12:00,
2013-02-19 07:17:00,32.1,20.9,30.25,NW,325,0.0,0.0,63,0.00,,---,0.00,VWS V13.01,2013-02-19 13:17:00,
2013-02-19 07:23:00,32.0,21.2,30.25,NW,325,0.0,2.0,64,0.00,,---,0.00,VWS V13.01,2013-02-19 13:23:00,
2013-02-19 07:28:00,31.9,21.5,30.25,NW,325,0.0,2.0,65,0.00,,---,0.00,VWS V13.01,2013-02-19 13:28:00,
2013-02-19 07:33:00,31.8,22.1,30.26,NW,325,0.0,2.0,67,0.00,,---,0.00,VWS V13.01,2013-02-19 13:33:00,
2013-02-19 07:38:00,31.7,23.0,30.26,NW,325,0.0,0.0,70,0.00,,---,0.00,VWS V13.01,2013-02-19 13:38:00,
2013-02-19 07:43:00,31.9,24.2,30.27,NW,325,0.0,1.0,73,0.00,,---,0.00,VWS V13.01,2013-02-19 13:43:00,
2013-02-19 07:48:00,31.9,24.6,30.27,NW,325,0.0,1.0,74,0.00,,---,0.00,VWS V13.01,2013-02-19 13:48:00,
2013-02-19 07:53:00,32.0,25.0,30.27,NW,326,0.0,1.0,75,0.00,,---,0.00,VWS V13.01,2013-02-19 13:53:00,
2013-02-19 07:58:00,32.2,25.5,30.27,NW,325,0.0,1.0,76,0.00,,---,0.00,VWS V13.01,2013-02-19 13:58:00,
2013-02-19 08:03:00,32.5,26.1,30.28,WNW,303,0.0,4.0,77,0.00,,---,0.00,VWS V13.01,2013-02-19 14:03:00,
2013-02-19 08:08:00,32.9,26.5,30.28,NW,311,0.0,4.0,77,0.00,,---,0.00,VWS V13.01,2013-02-19 14:08:00,
2013-02-19 08:13:00,33.2,26.8,30.28,NW,309,1.0,4.0,77,0.00,,---,0.00,VWS V13.01,2013-02-19 14:13:00,
2013-02-19 08:18:00,33.5,26.8,30.29,NW,319,0.0,4.0,76,0.00,,---,0.00,VWS V13.01,2013-02-19 14:18:00,
2013-02-19 08:23:00,33.9,26.5,30.29,WNW,294,4.0,4.0,74,0.00,,---,0.00,VWS V13.01,2013-02-19 14:23:00,
2013-02-19 08:28:00,34.3,26.6,30.28,West,271,4.0,5.0,73,0.00,,---,0.00,VWS V13.01,2013-02-19 14:28:00,
2013-02-19 08:33:00,34.4,26.3,30.28,WNW,295,4.0,5.0,72,0.00,,---,0.00,VWS V13.01,2013-02-19 14:33:00,
2013-02-19 08:38:00,34.9,26.5,30.29,NNW,330,0.0,4.0,71,0.00,,---,0.00,VWS V13.01,2013-02-19 14:38:00,
2013-02-19 08:43:00,35.2,26.1,30.29,NW,315,0.0,4.0,69,0.00,,---,0.00,VWS V13.01,2013-02-19 14:43:00,
2013-02-19 08:48:00,35.6,26.1,30.29,NNW,336,0.0,4.0,68,0.00,,---,0.00,VWS V13.01,2013-02-19 14:48:00,
2013-02-19 08:54:00,35.9,26.0,30.29,NW,319,0.0,4.0,67,0.00,,---,0.00,VWS V13.01,2013-02-19 14:54:00,
2013-02-19 08:59:00,36.3,26.4,30.30,NW,315,0.0,5.0,67,0.00,,---,0.00,VWS V13.01,2013-02-19 14:59:00,
2013-02-19 09:04:00,36.8,25.8,30.29,NNW,328,0.0,6.0,64,0.00,,---,0.00,VWS V13.01,2013-02-19 15:04:00,
2013-02-19 09:09:00,37.1,25.3,30.30,West,276,1.0,5.0,62,0.00,,---,0.00,VWS V13.01,2013-02-19 15:09:00,
2013-02-19 09:14:00,37.4,24.8,30.30,NNW,336,2.0,5.0,60,0.00,,---,0.00,VWS V13.01,2013-02-19 15:14:00,
2013-02-19 09:19:00,37.8,24.8,30.30,NW,315,2.0,7.0,59,0.00,,---,0.00,VWS V13.01,2013-02-19 15:19:00,
2013-02-19 09:24:00,38.0,24.5,30.30,WNW,296,0.0,7.0,58,0.00,,---,0.00,VWS V13.01,2013-02-19 15:24:00,
2013-02-19 09:29:00,38.4,24.9,30.30,NW,316,0.0,7.0,58,0.00,,---,0.00,VWS V13.01,2013-02-19 15:29:00,
2013-02-19 09:34:00,38.6,25.1,30.30,NW,321,0.0,7.0,58,0.00,,---,0.00,VWS V13.01,2013-02-19 15:34:00,
2013-02-19 09:39:00,38.8,25.7,30.30,NNW,332,0.0,4.0,59,0.00,,---,0.00,VWS V13.01,2013-02-19 15:39:00,
2013-02-19 09:44:00,39.1,25.2,30.31,NW,317,0.0,11.0,57,0.00,,---,0.00,VWS V13.01,2013-02-19 15:44:00,
2013-02-19 09:49:00,39.3,25.8,30.31,NW,320,0.0,11.0,58,0.00,,---,0.00,VWS V13.01,2013-02-19 15:49:00,
2013-02-19 09:54:00,39.5,25.5,30.31,NNW,334,1.0,11.0,57,0.00,,---,0.00,VWS V13.01,2013-02-19 15:54:00,
2013-02-19 09:59:00,39.8,25.0,30.31,NW,317,0.0,11.0,55,0.00,,---,0.00,VWS V13.01,2013-02-19 15:59:00,
2013-02-19 10:04:00,40.1,25.7,30.31,WSW,254,0.0,11.0,56,0.00,,---,0.00,VWS V13.01,2013-02-19 16:04:00,
2013-02-19 10:09:00,40.4,26.0,30.32,NW,318,0.0,10.0,56,0.00,,---,0.00,VWS V13.01,2013-02-19 16:09:00,
2013-02-19 10:14:00,40.7,25.8,30.32,North,360,1.0,10.0,55,0.00,,---,0.00,VWS V13.01,2013-02-19 16:14:00,
2013-02-19 10:19:00,40.9,26.0,30.32,NW,314,0.0,10.0,55,0.00,,---,0.00,VWS V13.01,2013-02-19 16:19:00,
2013-02-19 10:24:00,41.1,26.2,30.32,WNW,289,0.0,10.0,55,0.00,,---,0.00,VWS V13.01,2013-02-19 16:24:00,
2013-02-19 10:29:00,41.2,25.4,30.32,NW,325,3.0,10.0,53,0.00,,---,0.00,VWS V13.01,2013-02-19 16:29:00,
2013-02-19 10:34:00,41.5,26.1,30.32,SW,232,2.0,10.0,54,0.00,,---,0.00,VWS V13.01,2013-02-19 16:34:00,
2013-02-19 10:39:00,41.8,26.8,30.32,WSW,256,2.0,10.0,55,0.00,,---,0.00,VWS V13.01,2013-02-19 16:39:00,
2013-02-19 10:44:00,42.0,25.7,30.32,North,350,0.0,10.0,52,0.00,,---,0.00,VWS V13.01,2013-02-19 16:44:00,
2013-02-19 10:49:00,42.2,25.9,30.32,SW,230,1.0,10.0,52,0.00,,---,0.00,VWS V13.01,2013-02-19 16:49:00,
2013-02-19 10:54:00,42.5,27.0,30.33,NW,310,4.0,10.0,54,0.00,,---,0.00,VWS V13.01,2013-02-19 16:54:00,
2013-02-19 10:59:00,42.7,25.4,30.33,West,265,4.0,11.0,50,0.00,,---,0.00,VWS V13.01,2013-02-19 16:59:00,
2013-02-19 11:04:00,42.9,27.0,30.33,WSW,249,0.0,11.0,53,0.00,,---,0.00,VWS V13.01,2013-02-19 17:04:00,
2013-02-19 11:09:00,43.3,26.4,30.33,West,277,0.0,5.0,51,0.00,,---,0.00,VWS V13.01,2013-02-19 17:09:00,
2013-02-19 11:14:00,43.9,27.0,30.33,SW,229,6.0,11.0,51,0.00,,---,0.00,VWS V13.01,2013-02-19 17:14:00,
2013-02-19 11:19:00,44.3,25.9,30.33,WNW,297,3.0,11.0,48,0.00,,---,0.00,VWS V13.01,2013-02-19 17:19:00,
2013-02-19 11:24:00,44.3,25.4,30.33,West,275,4.0,12.0,47,0.00,,---,0.00,VWS V13.01,2013-02-19 17:24:00,
2013-02-19 11:29:00,44.3,25.9,30.33,NW,304,5.0,12.0,48,0.00,,---,0.00,VWS V13.01,2013-02-19 17:29:00,
2013-02-19 11:34:00,44.7,26.7,30.33,NNW,348,6.0,12.0,49,0.00,,---,0.00,VWS V13.01,2013-02-19 17:34:00,
2013-02-19 11:39:00,45.1,27.6,30.33,NW,314,0.0,6.0,50,0.00,,---,0.00,VWS V13.01,2013-02-19 17:39:00,
2013-02-19 11:44:00,45.2,25.7,30.33,NW,325,7.0,10.0,46,0.00,,---,0.00,VWS V13.01,2013-02-19 17:44:00,
2013-02-19 11:49:00,45.1,26.6,30.33,NW,319,6.0,10.0,48,0.00,,---,0.00,VWS V13.01,2013-02-19 17:49:00,
2013-02-19 11:54:00,45.4,26.9,30.33,NNW,347,3.0,11.0,48,0.00,,---,0.00,VWS V13.01,2013-02-19 17:54:00,
2013-02-19 11:59:00,45.5,25.9,30.33,NNW,340,3.0,11.0,46,0.00,,---,0.00,VWS V13.01,2013-02-19 17:59:00,
2013-02-19 12:04:00,45.4,25.9,30.33,NNW,334,0.0,13.0,46,0.00,,---,0.00,VWS V13.01,2013-02-19 18:04:00,
2013-02-19 12:09:00,46.1,28.0,30.33,NW,310,0.0,2.0,49,0.00,,---,0.00,VWS V13.01,2013-02-19 18:09:00,
2013-02-19 12:14:00,46.8,28.2,30.32,NW,304,2.0,9.0,48,0.00,,---,0.00,VWS V13.01,2013-02-19 18:14:00,
2013-02-19 12:19:00,46.4,26.8,30.32,NNW,338,0.0,13.0,46,0.00,,---,0.00,VWS V13.01,2013-02-19 18:19:00,
2013-02-19 12:25:00,47.0,27.3,30.32,NW,314,2.0,13.0,46,0.00,,---,0.00,VWS V13.01,2013-02-19 18:25:00,
2013-02-19 12:30:00,47.3,28.1,30.32,NW,325,5.0,13.0,47,0.00,,---,0.00,VWS V13.01,2013-02-19 18:30:00,
2013-02-19 12:35:00,47.3,28.6,30.32,WNW,295,0.0,13.0,48,0.00,,---,0.00,VWS V13.01,2013-02-19 18:35:00,
2013-02-19 12:40:00,47.9,28.1,30.31,NNW,343,3.0,5.0,46,0.00,,---,0.00,VWS V13.01,2013-02-19 18:40:00,
2013-02-19 12:45:00,48.2,28.9,30.31,NW,322,0.0,6.0,47,0.00,,---,0.00,VWS V13.01,2013-02-19 18:45:00,
2013-02-19 12:50:00,47.9,28.1,30.31,West,264,4.0,7.0,46,0.00,,---,0.00,VWS V13.01,2013-02-19 18:50:00,
2013-02-19 12:55:00,48.0,27.7,30.31,WSW,247,1.0,7.0,45,0.00,,---,0.00,VWS V13.01,2013-02-19 18:55:00,
2013-02-19 13:00:00,48.0,28.2,30.31,West,277,5.0,11.0,46,0.00,,---,0.00,VWS V13.01,2013-02-19 19:00:00,
2013-02-19 13:05:00,48.7,28.9,30.30,NW,304,0.0,11.0,46,0.00,,---,0.00,VWS V13.01,2013-02-19 19:05:00,
2013-02-19 13:10:00,49.2,29.9,30.30,NW,309,0.0,10.0,47,0.00,,---,0.00,VWS V13.01,2013-02-19 19:10:00,
2013-02-19 13:15:00,48.6,29.3,30.30,WSW,256,2.0,10.0,47,0.00,,---,0.00,VWS V13.01,2013-02-19 19:15:00,
2013-02-19 13:20:00,48.5,28.1,30.30,NW,317,3.0,14.0,45,0.00,,---,0.00,VWS V13.01,2013-02-19 19:20:00,
2013-02-19 13:25:00,48.5,28.1,30.30,West,279,0.0,14.0,45,0.00,,---,0.00,VWS V13.01,2013-02-19 19:25:00,
2013-02-19 13:30:00,48.7,28.3,30.30,WNW,300,5.0,14.0,45,0.00,,---,0.00,VWS V13.01,2013-02-19 19:30:00,
2013-02-19 13:35:00,49.3,29.9,30.29,West,269,7.0,14.0,47,0.00,,---,0.00,VWS V13.01,2013-02-19 19:35:00,
2013-02-19 13:40:00,49.4,29.0,30.29,NNW,336,2.0,10.0,45,0.00,,---,0.00,VWS V13.01,2013-02-19 19:40:00,
2013-02-19 13:45:00,50.3,29.8,30.29,WSW,254,5.0,11.0,45,0.00,,---,0.00,VWS V13.01,2013-02-19 19:45:00,
2013-02-19 13:50:00,50.0,28.4,30.29,WNW,298,2.0,14.0,43,0.00,,---,0.00,VWS V13.01,2013-02-19 19:50:00,
2013-02-19 13:55:00,50.0,29.0,30.29,NNW,347,5.0,18.0,44,0.00,,---,0.00,VWS V13.01,2013-02-19 19:55:00,
2013-02-19 14:00:00,50.4,29.9,30.29,North,355,0.0,18.0,45,0.00,,---,0.00,VWS V13.01,2013-02-19 20:00:00,
2013-02-19 14:05:00,50.3,28.1,30.29,WNW,292,2.0,18.0,42,0.00,,---,0.00,VWS V13.01,2013-02-19 20:05:00,
2013-02-19 14:10:00,50.6,27.8,30.29,NNW,340,5.0,13.0,41,0.00,,---,0.00,VWS V13.01,2013-02-19 20:10:00,
2013-02-19 14:16:00,50.1,27.9,30.29,NW,309,3.0,13.0,42,0.00,,---,0.00,VWS V13.01,2013-02-19 20:16:00,
2013-02-19 14:21:00,50.9,29.2,30.28,WNW,300,8.0,13.0,43,0.00,,---,0.00,VWS V13.01,2013-02-19 20:21:00,
2013-02-19 14:26:00,51.3,29.0,30.28,WNW,298,6.0,13.0,42,0.00,,---,0.00,VWS V13.01,2013-02-19 20:26:00,
2013-02-19 14:31:00,51.7,29.9,30.28,NW,321,0.0,13.0,43,0.00,,---,0.00,VWS V13.01,2013-02-19 20:31:00,
2013-02-19 14:36:00,51.3,29.0,30.28,NNW,340,4.0,14.0,42,0.00,,---,0.00,VWS V13.01,2013-02-19 20:36:00,
2013-02-19 14:41:00,50.7,28.5,30.28,NW,321,5.0,14.0,42,0.00,,---,0.00,VWS V13.01,2013-02-19 20:41:00,
2013-02-19 14:46:00,50.5,28.3,30.28,WNW,296,1.0,14.0,42,0.00,,---,0.00,VWS V13.01,2013-02-19 20:46:00,
2013-02-19 14:51:00,51.7,29.4,30.28,NW,322,1.0,14.0,42,0.00,,---,0.00,VWS V13.01,2013-02-19 20:51:00,
2013-02-19 14:56:00,51.2,28.3,30.28,WNW,291,6.0,14.0,41,0.00,,---,0.00,VWS V13.01,2013-02-19 20:56:00,
2013-02-19 15:01:00,51.2,27.7,30.28,West,262,4.0,14.0,40,0.00,,---,0.00,VWS V13.01,2013-02-19 21:01:00,
2013-02-19 15:06:00,51.0,26.9,30.28,WNW,284,0.0,5.0,39,0.00,,---,0.00,VWS V13.01,2013-02-19 21:06:00,
2013-02-19 15:11:00,50.8,28.0,30.28,West,279,3.0,12.0,41,0.00,,---,0.00,VWS V13.01,2013-02-19 21:11:00,
2013-02-19 15:16:00,50.6,27.2,30.28,North,349,0.0,12.0,40,0.00,,---,0.00,VWS V13.01,2013-02-19 21:16:00,
2013-02-19 15:21:00,50.7,28.5,30.28,WNW,298,0.0,12.0,42,0.00,,---,0.00,VWS V13.01,2013-02-19 21:21:00,
2013-02-19 15:26:00,51.2,28.9,30.27,NNW,333,0.0,12.0,42,0.00,,---,0.00,VWS V13.01,2013-02-19 21:26:00,
2013-02-19 15:31:00,50.8,27.4,30.27,WNW,299,1.0,12.0,40,0.00,,---,0.00,VWS V13.01,2013-02-19 21:31:00,
2013-02-19 15:36:00,50.2,27.4,30.27,NNW,344,0.0,4.0,41,0.00,,---,0.00,VWS V13.01,2013-02-19 21:36:00,
2013-02-19 15:41:00,50.3,26.9,30.26,WNW,302,5.0,13.0,40,0.00,,---,0.00,VWS V13.01,2013-02-19 21:41:00,
2013-02-19 15:46:00,50.1,26.7,30.26,NW,310,11.0,13.0,40,0.00,,---,0.00,VWS V13.01,2013-02-19 21:46:00,
2013-02-19 15:51:00,49.9,27.7,30.26,NW,307,4.0,13.0,42,0.00,,---,0.00,VWS V13.01,2013-02-19 21:51:00,
2013-02-19 15:56:00,50.0,27.2,30.26,WNW,287,0.0,13.0,41,0.00,,---,0.00,VWS V13.01,2013-02-19 21:56:00,
2013-02-19 16:01:00,50.1,27.9,30.26,NNW,330,0.0,13.0,42,0.00,,---,0.00,VWS V13.01,2013-02-19 22:01:00,
2013-02-19 16:06:00,50.2,26.8,30.26,NNW,340,0.0,4.0,40,0.00,,---,0.00,VWS V13.01,2013-02-19 22:06:00,
2013-02-19 16:11:00,50.1,25.5,30.26,NW,320,0.0,12.0,38,0.00,,---,0.00,VWS V13.01,2013-02-19 22:11:00,
2013-02-19 16:16:00,49.9,25.3,30.26,NNW,341,3.0,12.0,38,0.00,,---,0.00,VWS V13.01,2013-02-19 22:16:00,
2013-02-19 16:21:00,49.8,24.6,30.25,NNW,341,1.0,12.0,37,0.00,,---,0.00,VWS V13.01,2013-02-19 22:21:00,
2013-02-19 16:26:00,49.6,23.8,30.25,NNW,340,0.0,12.0,36,0.00,,---,0.00,VWS V13.01,2013-02-19 22:26:00,
2013-02-19 16:31:00,49.4,23.6,30.25,North,351,0.0,12.0,36,0.00,,---,0.00,VWS V13.01,2013-02-19 22:31:00,
2013-02-19 16:37:00,49.3,24.1,30.26,North,355,2.0,5.0,37,0.00,,---,0.00,VWS V13.01,2013-02-19 22:37:00,
2013-02-19 16:41:00,49.2,24.7,30.25,NNW,332,0.0,7.0,38,0.00,,---,0.00,VWS V13.01,2013-02-19 22:41:00,
2013-02-19 16:47:00,49.1,24.0,30.25,North,360,0.0,7.0,37,0.00,,---,0.00,VWS V13.01,2013-02-19 22:47:00,
2013-02-19 16:52:00,49.0,23.9,30.25,NNW,345,0.0,7.0,37,0.00,,---,0.00,VWS V13.01,2013-02-19 22:52:00,
2013-02-19 16:57:00,49.0,25.1,30.26,NNW,338,4.0,7.0,39,0.00,,---,0.00,VWS V13.01,2013-02-19 22:57:00,
2013-02-19 17:02:00,48.8,23.7,30.25,NNW,334,0.0,7.0,37,0.00,,---,0.00,VWS V13.01,2013-02-19 23:02:00,
2013-02-19 17:07:00,48.6,23.5,30.26,NNW,330,0.0,3.0,37,0.00,,---,0.00,VWS V13.01,2013-02-19 23:07:00,
2013-02-19 17:12:00,48.4,23.3,30.26,NNW,342,0.0,4.0,37,0.00,,---,0.00,VWS V13.01,2013-02-19 23:12:00,
2013-02-19 17:17:00,48.1,23.7,30.26,NNW,340,0.0,4.0,38,0.00,,---,0.00,VWS V13.01,2013-02-19 23:17:00,
2013-02-19 17:22:00,47.9,25.4,30.25,NW,308,0.0,4.0,41,0.00,,---,0.00,VWS V13.01,2013-02-19 23:22:00,
2013-02-19 17:27:00,47.7,24.6,30.25,NNW,331,0.0,5.0,40,0.00,,---,0.00,VWS V13.01,2013-02-19 23:27:00,
2013-02-19 17:32:00,47.4,25.5,30.25,NW,315,0.0,5.0,42,0.00,,---,0.00,VWS V13.01,2013-02-19 23:32:00,
2013-02-19 17:37:00,47.1,25.2,30.26,NW,314,0.0,1.0,42,0.00,,---,0.00,VWS V13.01,2013-02-19 23:37:00,
2013-02-19 17:42:00,46.8,25.5,30.26,NW,314,0.0,1.0,43,0.00,,---,0.00,VWS V13.01,2013-02-19 23:42:00,
2013-02-19 17:47:00,46.5,24.7,30.26,NNW,329,0.0,4.0,42,0.00,,---,0.00,VWS V13.01,2013-02-19 23:47:00,
2013-02-19 17:52:00,46.2,26.0,30.26,NW,317,0.0,4.0,45,0.00,,---,0.00,VWS V13.01,2013-02-19 23:52:00,
2013-02-19 17:57:00,45.7,25.6,30.26,NW,318,0.0,4.0,45,0.00,,---,0.00,VWS V13.01,2013-02-19 23:57:00,
2013-02-19 18:02:00,45.1,26.1,30.27,NW,318,0.0,4.0,47,0.00,,---,0.00,VWS V13.01,2013-02-20 00:02:00,
2013-02-19 18:07:00,44.5,26.0,30.27,NW,317,0.0,3.0,48,0.00,,---,0.00,VWS V13.01,2013-02-20 00:07:00,
2013-02-19 18:12:00,44.1,26.7,30.28,NW,317,0.0,3.0,50,0.00,,---,0.00,VWS V13.01,2013-02-20 00:12:00,
2013-02-19 18:17:00,43.9,27.0,30.28,NW,317,0.0,3.0,51,0.00,,---,0.00,VWS V13.01,2013-02-20 00:17:00,
2013-02-19 18:22:00,43.4,27.4,30.28,NW,317,0.0,3.0,53,0.00,,---,0.00,VWS V13.01,2013-02-20 00:22:00,
2013-02-19 18:27:00,43.2,26.8,30.28,NW,318,0.0,3.0,52,0.00,,---,0.00,VWS V13.01,2013-02-20 00:27:00,
2013-02-19 18:32:00,43.2,26.3,30.28,NW,318,0.0,3.0,51,0.00,,---,0.00,VWS V13.01,2013-02-20 00:32:00,
2013-02-19 18:37:00,42.9,26.0,30.29,NW,318,0.0,0.0,51,0.00,,---,0.00,VWS V13.01,2013-02-20 00:37:00,
2013-02-19 18:42:00,42.7,26.3,30.28,NW,318,0.0,1.0,52,0.00,,---,0.00,VWS V13.01,2013-02-20 00:42:00,
2013-02-19 18:47:00,42.7,25.9,30.28,NW,318,0.0,1.0,51,0.00,,---,0.00,VWS V13.01,2013-02-20 00:47:00,
2013-02-19 18:52:00,42.4,25.6,30.28,NW,318,0.0,1.0,51,0.00,,---,0.00,VWS V13.01,2013-02-20 00:52:00,
2013-02-19 18:57:00,42.0,26.1,30.28,NW,318,0.0,1.0,53,0.00,,---,0.00,VWS V13.01,2013-02-20 00:57:00,
2013-02-19 19:02:00,41.5,26.1,30.28,NW,318,0.0,1.0,54,0.00,,---,0.00,VWS V13.01,2013-02-20 01:02:00,
2013-02-19 19:07:00,40.9,26.0,30.28,NW,318,0.0,0.0,55,0.00,,---,0.00,VWS V13.01,2013-02-20 01:07:00,
2013-02-19 19:12:00,40.6,26.1,30.28,NW,318,0.0,0.0,56,0.00,,---,0.00,VWS V13.01,2013-02-20 01:12:00,
2013-02-19 19:17:00,40.6,25.7,30.28,NW,318,0.0,0.0,55,0.00,,---,0.00,VWS V13.01,2013-02-20 01:17:00,
2013-02-19 19:22:00,40.6,25.7,30.28,NW,318,0.0,1.0,55,0.00,,---,0.00,VWS V13.01,2013-02-20 01:22:00,
2013-02-19 19:27:00,41.0,23.8,30.28,NW,318,0.0,1.0,50,0.00,,---,0.00,VWS V13.01,2013-02-20 01:27:00,
2013-02-19 19:32:00,41.6,23.4,30.27,NW,318,0.0,1.0,48,0.00,,---,0.00,VWS V13.01,2013-02-20 01:32:00,
2013-02-19 19:37:00,41.1,25.7,30.27,NW,318,0.0,0.0,54,0.00,,---,0.00,VWS V13.01,2013-02-20 01:37:00,
2013-02-19 19:42:00,40.3,25.0,30.27,NW,318,0.0,0.0,54,0.00,,---,0.00,VWS V13.01,2013-02-20 01:42:00,
2013-02-19 19:47:00,39.7,24.0,30.28,NW,318,0.0,0.0,53,0.00,,---,0.00,VWS V13.01,2013-02-20 01:47:00,
2013-02-19 19:52:00,39.4,24.1,30.28,NW,318,0.0,0.0,54,0.00,,---,0.00,VWS V13.01,2013-02-20 01:52:00,
2013-02-19 19:57:00,39.3,24.9,30.28,NW,318,0.0,0.0,56,0.00,,---,0.00,VWS V13.01,2013-02-20 01:57:00,
2013-02-19 20:02:00,39.3,24.9,30.28,NW,318,0.0,0.0,56,0.00,,---,0.00,VWS V13.01,2013-02-20 02:02:00,
2013-02-19 20:07:00,39.2,24.8,30.28,NW,318,0.0,0.0,56,0.00,,---,0.00,VWS V13.01,2013-02-20 02:07:00,
2013-02-19 20:12:00,38.9,24.6,30.29,NW,317,0.0,1.0,56,0.00,,---,0.00,VWS V13.01,2013-02-20 02:12:00,
2013-02-19 20:17:00,38.7,24.8,30.29,NW,317,0.0,1.0,57,0.00,,---,0.00,VWS V13.01,2013-02-20 02:17:00,
2013-02-19 20:22:00,38.8,25.3,30.29,NW,317,0.0,1.0,58,0.00,,---,0.00,VWS V13.01,2013-02-20 02:22:00,
2013-02-19 20:27:00,38.5,25.8,30.29,NW,317,0.0,1.0,60,0.00,,---,0.00,VWS V13.01,2013-02-20 02:27:00,
2013-02-19 20:32:00,38.4,24.9,30.29,NW,317,0.0,1.0,58,0.00,,---,0.00,VWS V13.01,2013-02-20 02:32:00,
2013-02-19 20:38:00,38.3,25.6,30.28,NW,317,0.0,0.0,60,0.00,,---,0.00,VWS V13.01,2013-02-20 02:38:00,
2013-02-19 20:43:00,38.2,25.1,30.28,NW,317,0.0,0.0,59,0.00,,---,0.00,VWS V13.01,2013-02-20 02:43:00,
2013-02-19 20:48:00,38.2,24.3,30.29,NW,317,0.0,0.0,57,0.00,,---,0.00,VWS V13.01,2013-02-20 02:48:00,
2013-02-19 20:53:00,38.0,25.4,30.28,NW,317,0.0,0.0,60,0.00,,---,0.00,VWS V13.01,2013-02-20 02:53:00,
2013-02-19 20:58:00,37.8,25.6,30.28,NW,317,0.0,0.0,61,0.00,,---,0.00,VWS V13.01,2013-02-20 02:58:00,
2013-02-19 21:03:00,37.8,24.4,30.29,NW,317,0.0,0.0,58,0.00,,---,0.00,VWS V13.01,2013-02-20 03:03:00,
2013-02-19 21:08:00,37.7,24.3,30.29,NW,317,0.0,0.0,58,0.00,,---,0.00,VWS V13.01,2013-02-20 03:08:00,
2013-02-19 21:13:00,37.6,24.2,30.29,NW,317,0.0,0.0,58,0.00,,---,0.00,VWS V13.01,2013-02-20 03:13:00,
2013-02-19 21:18:00,37.4,24.0,30.29,NW,317,0.0,0.0,58,0.00,,---,0.00,VWS V13.01,2013-02-20 03:18:00,
2013-02-19 21:23:00,37.4,24.4,30.29,NW,317,0.0,0.0,59,0.00,,---,0.00,VWS V13.01,2013-02-20 03:23:00,
2013-02-19 21:28:00,37.3,24.3,30.29,NW,317,0.0,0.0,59,0.00,,---,0.00,VWS V13.01,2013-02-20 03:28:00,
2013-02-19 21:33:00,37.3,23.9,30.29,NW,317,0.0,0.0,58,0.00,,---,0.00,VWS V13.01,2013-02-20 03:33:00,
2013-02-19 21:38:00,37.3,23.9,30.30,NW,317,0.0,0.0,58,0.00,,---,0.00,VWS V13.01,2013-02-20 03:38:00,
2013-02-19 21:43:00,37.2,24.2,30.30,NW,317,0.0,0.0,59,0.00,,---,0.00,VWS V13.01,2013-02-20 03:43:00,
2013-02-19 21:48:00,37.2,23.8,30.30,NW,317,0.0,0.0,58,0.00,,---,0.00,VWS V13.01,2013-02-20 03:48:00,
2013-02-19 21:53:00,37.1,24.1,30.31,NW,317,0.0,0.0,59,0.00,,---,0.00,VWS V13.01,2013-02-20 03:53:00,
2013-02-19 21:58:00,37.0,24.0,30.31,NW,317,0.0,0.0,59,0.00,,---,0.00,VWS V13.01,2013-02-20 03:58:00,
2013-02-19 22:03:00,36.9,24.3,30.30,NW,317,0.0,0.0,60,0.00,,---,0.00,VWS V13.01,2013-02-20 04:03:00,
2013-02-19 22:08:00,36.9,24.3,30.29,NW,323,0.0,1.0,60,0.00,,---,0.00,VWS V13.01,2013-02-20 04:08:00,
2013-02-19 22:13:00,36.9,24.7,30.29,North,355,0.0,1.0,61,0.00,,---,0.00,VWS V13.01,2013-02-20 04:13:00,
2013-02-19 22:18:00,36.9,24.3,30.30,North,355,0.0,1.0,60,0.00,,---,0.00,VWS V13.01,2013-02-20 04:18:00,
2013-02-19 22:23:00,37.0,24.8,30.30,North,355,0.0,1.0,61,0.00,,---,0.00,VWS V13.01,2013-02-20 04:23:00,
2013-02-19 22:28:00,37.0,24.8,30.30,North,355,0.0,1.0,61,0.00,,---,0.00,VWS V13.01,2013-02-20 04:28:00,
2013-02-19 22:33:00,37.0,24.4,30.30,North,355,0.0,1.0,60,0.00,,---,0.00,VWS V13.01,2013-02-20 04:33:00,
2013-02-19 22:39:00,36.9,24.3,30.30,North,355,0.0,1.0,60,0.00,,---,0.00,VWS V13.01,2013-02-20 04:39:00,
2013-02-19 22:44:00,36.9,23.9,30.30,North,5,0.0,1.0,59,0.00,,---,0.00,VWS V13.01,2013-02-20 04:44:00,
2013-02-19 22:49:00,36.9,22.7,30.30,NNE,31,2.0,5.0,56,0.00,,---,0.00,VWS V13.01,2013-02-20 04:49:00,
2013-02-19 22:54:00,37.2,22.5,30.30,NNE,30,0.0,5.0,55,0.00,,---,0.00,VWS V13.01,2013-02-20 04:54:00,
2013-02-19 22:59:00,37.5,22.4,30.30,NNE,29,3.0,5.0,54,0.00,,---,0.00,VWS V13.01,2013-02-20 04:59:00,
2013-02-19 23:00:00,37.6,22.5,30.30,NE,37,1.0,5.0,54,0.00,,---,0.00,VWS V13.01,2013-02-20 05:00:00,
2013-02-19 23:01:00,37.7,22.6,30.30,ENE,61,2.0,6.0,54,0.00,,---,0.00,VWS V13.01,2013-02-20 05:01:00,
2013-02-19 23:06:00,38.0,22.4,30.30,NNE,32,1.0,3.0,53,0.00,,---,0.00,VWS V13.01,2013-02-20 05:06:00,
2013-02-19 23:11:00,38.2,22.1,30.30,NE,42,3.0,7.0,52,0.00,,---,0.00,VWS V13.01,2013-02-20 05:11:00,
2013-02-19 23:16:00,38.4,21.9,30.30,NE,34,2.0,10.0,51,0.00,,---,0.00,VWS V13.01,2013-02-20 05:16:00,
2013-02-19 23:21:00,38.5,22.4,30.30,NE,45,0.0,10.0,52,0.00,,---,0.00,VWS V13.01,2013-02-20 05:21:00,
2013-02-19 23:26:00,38.4,22.3,30.30,NE,36,3.0,10.0,52,0.00,,---,0.00,VWS V13.01,2013-02-20 05:26:00,
2013-02-19 23:31:00,38.4,21.9,30.30,NNE,28,0.0,10.0,51,0.00,,---,0.00,VWS V13.01,2013-02-20 05:31:00,
2013-02-19 23:36:00,38.4,22.3,30.30,NNE,29,0.0,1.0,52,0.00,,---,0.00,VWS V13.01,2013-02-20 05:36:00,
2013-02-19 23:41:00,38.3,21.8,30.30,NE,49,0.0,3.0,51,0.00,,---,0.00,VWS V13.01,2013-02-20 05:41:00,
2013-02-19 23:46:00,38.3,21.8,30.30,NE,41,0.0,3.0,51,0.00,,---,0.00,VWS V13.01,2013-02-20 05:46:00,
2013-02-19 23:51:00,38.3,21.8,30.30,NE,41,1.0,3.0,51,0.00,,---,0.00,VWS V13.01,2013-02-20 05:51:00,
2013-02-19 23:56:00,38.2,21.7,30.30,NE,40,0.0,3.0,51,0.00,,---,0.00,VWS V13.01,2013-02-20 05:56:00,